星链-5154 (STARLINK-5154 )

导读 | 豆包AI

STARLINK-5154是美国SpaceX公司星链星座的一颗互联网卫星,于2022年10月28日由猎鹰9号火箭成功发射,属于星链星座第四批次4-16组卫星。该卫星重约297公斤,运行在约550公里高度的近地轨道,作为星链全球卫星互联网组网的组成部分,为全球偏远地区、海洋等传统网络覆盖盲区提供高速低延迟互联网接入服务,配备激光星间链路实现空间网状数据传输,助力星链实现全球全天候稳定网络覆盖。

基本信息
目录编号:
54176
目录名称:
STARLINK-5154
国际标识:
2022-141V
轨道中心:
EARTH
卫星名称:
星链-5154
卫星全名:
星链-5154 (STARLINK-5154 )
卫星状态:
在轨 (已飞行1280 天)
发射日期:
2022-10-28 UTC
国别 :
美国 (US)
星等 :
--
轨道信息
数据来源 国际轨道数据 AOE轨道数据
星历时间 2026-04-30T09:15:02+0800
14小时前
查看轨道信息
2026-04-25T08:00:00+0800
5天前
查看轨道信息
半长轴 6917.903km 6917.904km
偏心率 0.000062 0.0000734
轨道倾角 53.215° 53.218°
近地点辐角 63.012° 84.841°
升交点赤经 133.398° 156.080°
平近点角 297.094° 178.153°
近地点 539.337km 539.259km
远地点 540.195km 540.275km
周期 95.438分钟 95.438分钟
每日圈数 15.088328 15.088325
详细信息
固有亮度:
5
最大亮度:
2.5
卫星平台:
Starlink v1.5
覆盖范围:
全球
运营商:
太空探索技术公司
运营商所在国:
美国
制造商(研发单位):
太空探索技术公司
制造商所在国:
美国
使用方式:
暂无
卫星简介
星链(Starlink)计划是由太空探索技术公司(SpaceX)提出的一个巨型低轨卫星互联网星座项目,计划在2019年至2024年间在太空搭建由约1.2万颗卫星组成的“星链”网络,其中1584颗将部署在地球上空550千米处的近地轨道,并从2020年开始工作。该卫星仍在工作。
2D轨道图
3D轨道图
轨道高度分析图
轨道倾角分析图
轨道综合分析图
查看轨道综合分析图